Regional Weather Roundup
Issued by NWS

Home | Current Version | Previous Version | Graphics & Text | Print | Product List | Glossary On
Versions: 1 2 3 4 5 6 7 8 9 10 11 12 13 14 15 16 17 18 19 20 21 22 23 24 25 26 27 28 29 30 31 32 33 34 35 36 37 38 39 40 41 42 43 44 45 46 47 48 49 50
000
ASUS43 KIND 241959
RWRIN

WEATHER ROUNDUP FOR INDIANA
NATIONAL WEATHER SERVICE INDIANAPOLIS IN
300 PM EST WED DEC 24 2014

NOTE: "FAIR" INDICATES FEW OR NO CLOUDS BELOW 12,000 FEET WITH NO
SIGNIFICANT WEATHER AND/OR OBSTRUCTIONS TO VISIBILITY.

* - STATION DOES NOT REPORT WEATHER SUCH AS PRECIPITATION OR FOG.

+ - STATION NOT QUALITY CONTROLLED BY THE NATIONAL WEATHER SERVICE.
    USE DATA WITH CAUTION...ESPECIALLY DEWPOINT AND RELATIVE
    HUMIDITY OBSERVATIONS.

INZ001>003-010>013-019-020-242100-
NORTHWEST INDIANA

CITY           SKY/WX    TMP DP  RH WIND       PRES   REMARKS
GARY /AIRPORT/ LGT RAIN  41  36  81 W9        29.48F
VALPARAISO     NOT AVBL

$$

LMZ046-743>745-242100-
SOUTHERN LAKE MICHIGAN

STATION/POSITION TIME  TEMP WIND        PRES
                       AIR  DIR/SP/G
                 (UTC) (F)  (DEG/KT/KT) (MB)
MICHIGAN CITY    1900   38  280/  6/  7   N/A

$$

INZ004-005-014>016-021>024-242100-
NORTH CENTRAL INDIANA

CITY           SKY/WX    TMP DP  RH WIND       PRES   REMARKS
GOSHEN         RAIN      39  37  92 NW9       29.40F FOG
SOUTH BEND     RAIN      40  37  89 NW9       29.43F FOG

$$

INZ006>009-017-018-025>027-242100-
NORTHEAST INDIANA

CITY           SKY/WX    TMP DP  RH WIND       PRES   REMARKS
ANGOLA *+      CLOUDY    39  37  93 NW7       29.37R
FORT WAYNE     RAIN      41  39  93 NW6       29.39R FOG

$$

INZ028-029-035-036-043>045-051>053-242100-
WEST CENTRAL INDIANA

CITY           SKY/WX    TMP DP  RH WIND       PRES   REMARKS
GREENCASTLE +  CLOUDY    37  34  87 W8        29.53S
LAFAYETTE      LGT RAIN  38  36  92 W9        29.51S
TERRE HAUTE    LGT RAIN  39  36  89 W10       29.56R

$$

INZ030>032-037>040-046>048-054>057-064-065-242100-
CENTRAL INDIANA

CITY           SKY/WX    TMP DP  RH WIND       PRES   REMARKS
COLUMBUS       LGT RAIN  39  39 100 W14       29.52R
INDIANAPOLIS   LGT RAIN  38  36  92 W16       29.48S
-EAGLE CREEK   LGT RAIN  38  36  92 NW14      29.47R
KOKOMO *+      CLOUDY    39  36  87 NW14      29.46R
MT COMFORT *+  CLOUDY    39  39 100 W16G22    29.45S
SHELBYVILLE    LGT RAIN  42  37  82 W16       29.46R

$$

INZ033-034-041-042-049-050-058-059-242100-
EAST CENTRAL INDIANA

CITY           SKY/WX    TMP DP  RH WIND       PRES   REMARKS
MUNCIE         LGT RAIN  41  39  93 NW15      29.40S

$$

INZ060-061-067>069-081>083-085>088-242100-
SOUTHWEST INDIANA

CITY           SKY/WX    TMP DP  RH WIND       PRES   REMARKS
EVANSVILLE     CLOUDY    43  38  82 W12G21    29.63R
HUNTINGBURG *+ CLOUDY    43  37  81 W17G23    29.60S

$$

INZ062-063-066-070>080-084-089>092-242100-
SOUTH CENTRAL AND SOUTHEAST INDIANA

CITY           SKY/WX    TMP DP  RH WIND       PRES   REMARKS
BLOOMINGTON    LGT RAIN  40  37  89 W17G31    29.53S
SEYMOUR +      LGT RAIN  43  41  93 W15G21    29.51

$$




USA.gov is the U.S. government's official web portal to all federal, state and local government web resources and services.